Home > Weather > Kitchener > Past weeks

Flag for Canada Past Weather in Kitchener, Ontario, Canada — Yesterday and Last 2 Weeks

Now
77 °F

Passing clouds.


Feels Like: 79 °F
Forecast: 64 / 85 °F
Wind: 5 mph from Northeast

Location: Waterloo Well

Current Time: Jul 28, 2016 at 10:32:00 AM

Latest Report: Jul 28, 2016 at 10:00 AM


Visibility: 9 mi

Pressure: 29.93 "Hg

Humidity: 54%

Dew Point: 59 °F

Location of KitchenerLocation

Past Weather in Kitchener — Graph

°F

Kitchener Temperature Yesterday

Maximum temperature yesterday: 88 °F (at 3:00 PM)
Minimum temperature yesterday: 59 °F (at 2:00 AM)
Average temperature yesterday: 75 °F

High & Low Weather Summary for the Past Weeks

 TemperatureHumidityPressure
High93 °F (Jul 13, 3:00 PM)100% (Jul 16, 2:04 AM)30.30 "Hg (Jul 16, 2:04 AM)
Low46 °F (Jul 20, 5:00 AM)27% (Jul 23, 4:00 PM)29.74 "Hg (Jul 14, 5:54 AM)
Average72 °F67%29.98 "Hg
* Reported Jul 13 9:00 AM — Jul 28 9:00 AM, Kitchener, Weather by CustomWeather, © 2016

Note: Actual official high and low records may vary slightly from our data, if they occured in-between our weather recording intervals... More about our weather records

Advertising

Kitchener Weather History for the Previous 24 Hours

Scroll right to see more
 ConditionsComfort  
Time TempWeatherWind HumidityBarometerVisibility
9:00 AM
Thu, Jul 28
73 °FPassing clouds.3 mph69%29.95 "Hg9 mi
8:00 AM68 °FMostly cloudy.7 mph88%29.94 "Hg9 mi
7:00 AM64 °FPassing clouds.3 mph94%29.93 "Hg8 mi
6:00 AM64 °FPassing clouds.2 mph94%29.93 "Hg9 mi
5:00 AM66 °FMostly cloudy.No wind88%29.92 "Hg9 mi
4:00 AM64 °FLight rain. Mostly cloudy.6 mph94%29.91 "Hg8 mi
3:00 AM68 °FMostly cloudy.2 mph88%29.91 "Hg9 mi
2:00 AM68 °FOvercast.2 mph94%29.92 "Hg9 mi
1:00 AM70 °FOvercast.3 mph88%29.93 "Hg9 mi
12:00 AM70 °FMostly cloudy.No wind83%29.93 "Hg9 mi
11:00 PM
Wed, Jul 27
72 °FMostly cloudy.3 mph83%29.94 "Hg9 mi
10:00 PM72 °FClear.5 mph83%29.94 "Hg9 mi
9:00 PM77 °FSunny.5 mph69%29.93 "Hg9 mi
8:00 PM81 °FSunny.7 mph58%29.91 "Hg9 mi
7:00 PM84 °FSunny.10 mph51%29.90 "Hg9 mi
6:00 PM86 °FPassing clouds.15 mph46%29.91 "Hg9 mi
5:00 PM88 °FSunny.10 mph38%29.91 "Hg9 mi
4:00 PM88 °FPassing clouds.10 mph38%29.91 "Hg9 mi
3:00 PM88 °FPassing clouds.15 mph38%29.93 "Hg9 mi
2:00 PM86 °FScattered clouds.16 mph40%29.94 "Hg9 mi
1:00 PM86 °FSunny.8 mph43%29.95 "Hg9 mi
12:00 PM84 °FPassing clouds.13 mph48%29.96 "Hg9 mi
11:00 AM84 °FSunny.15 mph45%29.96 "Hg9 mi
10:59 AM84 °FSunny.15 mph45%29.96 "Hg9 mi
10:00 AM81 °FSunny.3 mph54%29.98 "Hg9 mi
Weather by CustomWeather, © 2016

See weather overviewHow to use our weather pages